Flag for Canada Weather past 2 weeks in Chatham-Kent, Ontario, Canada

Now
27 °F

Chilly.


Feels Like: 18 °F
Forecast: 15 / 36 °F
Wind: 10 mph from Southeast

Location: Erieau

Current Time: Mar 3, 2015 at 2:26:27 PM

Latest Report: Mar 3, 2015 at 1:00 PM


Visibility: N/A

Pressure: 29.88 "Hg

Humidity: 94%

Dew point: 26 °F

Location of Chatham-KentLocation

Historic Weather in Chatham-Kent — Graph

°F

Chatham-Kent temperature yesterday

Maximum temperature yesterday: 25 °F (at 3:00 PM)
Minimum temperature yesterday: 10 °F (at 12:00 AM)
Average temperature yesterday: 17 °F

Past Weeks' High & Low Weather Summary

 TemperatureHumidityPressure
High27 °F (Mar 3, 1:00 PM)94% (Mar 1, 6:00 PM)30.82 "Hg (Mar 1, 6:00 PM)
Low-12 °F (Feb 20, 7:00 AM)43% (Feb 23, 2:00 PM)29.68 "Hg (Feb 25, 12:00 AM)
Average10 °F74%30.24 "Hg
* Reported Feb 16 1:00 PM — Mar 3 1:00 PM, Chatham-Kent, Weather by CustomWeather, © 2015

Note: Actual official high and low records may vary slightly from our data, if they occured in-between our weather recording intervals... More about our weather records

Advertising

Chatham-Kent weather history for previous 24 hours

 ConditionsComfort  
Time TempWeatherWind HumidityBarometerVisibility
1:00 PM
Tue, Mar 3
27 °FChilly.10 mph94%29.88 "HgN/A
12:00 PM26 °FChilly.16 mph94%29.98 "HgN/A
11:00 AM22 °FCold.13 mph93%30.04 "HgN/A
10:00 AM21 °FCold.12 mph92%30.12 "HgN/A
9:00 AM21 °FCold.10 mph88%30.19 "HgN/A
8:00 AM22 °FCold.12 mph76%30.19 "HgN/A
7:00 AM21 °FCold.13 mph77%30.22 "HgN/A
6:00 AM21 °FCold.9 mph90%30.26 "HgN/A
5:00 AM21 °FCold.6 mph81%30.32 "HgN/A
4:00 AM20 °FCold.3 mph84%30.32 "HgN/A
3:00 AM19 °FCold.2 mph83%30.35 "HgN/A
2:00 AM18 °FCold.5 mph82%30.37 "HgN/A
1:00 AM17 °FCold.3 mph83%30.38 "HgN/A
12:00 AM14 °FCold.5 mph86%30.40 "HgN/A
11:00 PM
Mon, Mar 2
13 °FCold.3 mph89%30.43 "HgN/A
10:00 PM12 °FCold.2 mph91%30.42 "HgN/A
9:00 PM12 °FCold.1 mph90%30.45 "HgN/A
8:00 PM14 °FCold.3 mph89%30.46 "HgN/A
7:00 PM17 °FCold.5 mph87%30.46 "HgN/A
6:00 PM20 °FCold.5 mph80%30.45 "HgN/A
5:00 PM23 °FCold.7 mph79%30.46 "HgN/A
4:00 PM25 °FChilly.8 mph75%30.47 "HgN/A
3:00 PM25 °FChilly.8 mph69%30.46 "HgN/A
2:00 PM24 °FCold.12 mph74%30.46 "HgN/A
Weather by CustomWeather, © 2015

See weather overviewHow to use our weather pages